User: anonymous   Login
Location: New Plymouth
(39.0670°S, 174.0830°E)
Time: 00:33:17
(UTC+12:00)
Language:

STRAND 1 - Orbit

View from above orbital plane
View from above orbital plane
View from above satellite
View from above satellite

Ground track
Ground track

The orbit data is extracted from the following two-line orbital elements,

1 39090U 13009E   19230.51413481 +.00000012 +00000-0 +19226-4 0  9993
2 39090 098.4836 075.4373 0010310 105.8754 254.3568 14.35093329339091
Epoch (UTC): 18 August 2019 12:20:21
Eccentricity: 0.0010310
inclination: 98.4836°
perigee height: 767 km
apogee height: 782 km
right ascension of ascending node: 75.4373°
argument of perigee: 105.8754°
revolutions per day: 14.35093329
mean anomaly at epoch: 254.3568°
orbit number at epoch: 33909

The dashed part of the orbit path shows where the satellite is in the earth's shadow,  

DLR